Theta_e
345 344 343 342 343 343 343 343 343 344 342 340 339 339 338 338 339 338 336 335 334 335 335 332 332 331 327 325 324 328 331 334 328 330 332 333 336 337 340 341 338 337 331
342 341 341 342 342 342 341 342 342 340 340 339 338 336 336 336 336 335 334 334 331 333 332 331 330 326 329 326 329 334 335 337 332 326 329 328 330 331 337 335 334 333 334
339 339 340 339 339 339 339 340 340 339 339 337 336 334 334 334 334 335 334 333 334 333 332 331 331 331 330 327 333 334 336 334 335 330 326 324 325 325 325 328 328 331 331
338 337 336 335 337 338 339 339 339 338 337 336 336 334 333 333 333 334 333 334 334 334 332 333 332 332 330 332 334 334 333 330 331 328 325 321 321 324 323 320 318 321 320
335 333 333 337 338 338 338 338 338 338 336 335 334 333 333 332 331 334 335 335 334 333 334 331 334 327 322 327 335 335 333 328 323 320 321 319 318 318 317 319 316 316 318
332 331 334 335 336 336 337 337 338 336 335 335 333 333 333 330 308 316 328 335 333 332 333 328 331 322 321 316 316 317 330 329 323 319 318 316 318 318 318 316 315 313 309
330 331 332 334 334 335 335 335 336 336 337 335 335 334 334 333 304 306 314 335 335 333 332 331 328 328 324 328 314 313 314 314 320 329 326 322 315 317 317 316 317 318 313
329 330 331 331 332 333 334 334 336 338 336 337 335 333 334 325 303 302 309 334 335 333 331 332 331 328 330 326 329 328 326 329 330 329 329 325 319 320 320 319 322 318 317
329 329 329 330 332 333 333 335 336 337 336 335 333 330 332 331 303 302 313 332 333 331 331 331 331 329 309 306 326 327 325 325 310 304 306 305 301 304 312 316 313 314 311
329 330 330 329 333 332 335 336 337 337 335 332 330 330 320 331 303 301 316 333 330 328 329 329 308 322 303 302 324 325 324 325 326 321 315 311 314 312 309 319 317 313 312
331 331 330 332 333 334 335 336 336 335 332 332 331 332 333 329 322 304 307 328 328 327 326 325 325 300 299 301 308 322 320 326 318 320 318 319 316 319 319 319 320 317 315
331 329 330 334 333 334 336 335 335 334 332 331 331 331 330 331 311 304 305 309 312 326 326 326 319 298 298 299 307 300 301 312 323 318 315 315 315 316 318 319 323 325 324
331 329 332 334 334 336 335 334 332 333 329 327 325 324 327 327 326 300 301 302 304 323 326 311 297 295 296 299 297 299 305 320 319 318 315 315 317 320 324 320 321 326 326
331 330 333 333 333 335 334 333 330 330 327 326 323 323 325 324 324 324 322 319 304 316 306 309 306 305 303 304 308 313 319 320 320 319 318 318 320 322 322 321 319 324 323
331 330 332 333 334 335 334 330 330 332 327 324 325 325 323 323 323 316 317 322 323 314 313 315 318 316 314 316 318 318 318 318 318 320 318 319 319 320 322 325 324 324 322
331 330 330 332 334 333 332 329 297 299 301 302 303 316 323 307 299 300 299 298 298 299 315 316 318 316 315 316 317 316 317 315 318 320 321 319 321 322 322 323 324 322 321
331 331 330 327 332 332 331 328 327 314 296 296 297 298 302 303 296 295 296 295 296 303 318 317 317 320 317 318 319 318 317 320 322 322 324 323 323 323 320 323 324 325 323
333 311 331 331 330 331 331 329 330 328 326 326 300 302 297 296 294 294 296 302 318 315 320 318 317 322 321 321 322 321 322 324 324 324 325 325 325 324 324 325 325 323 323
330 331 330 331 330 326 330 328 330 330 328 328 321 307 297 292 292 293 295 325 323 321 322 321 321 325 324 326 327 325 325 325 325 326 326 326 326 326 326 326 325 306 310
331 314 319 330 330 330 330 328 326 329 330 329 327 326 316 309 316 315 323 328 328 327 324 325 325 327 328 326 329 327 326 326 327 326 327 328 329 328 326 325 324 323 323
331 329 313 329 329 329 330 329 328 326 327 329 330 325 304 327 326 325 325 328 328 328 328 330 329 328 329 329 329 328 327 328 329 329 329 329 328 326 326 325 324 324 324
331 330 328 327 328 328 329 330 329 328 326 325 327 321 295 325 329 328 328 328 330 331 330 329 329 330 330 330 330 330 329 329 330 329 329 330 329 329 329 328 327 327 326
331 330 329 326 327 315 327 328 329 330 329 327 325 326 324 328 330 330 331 331 331 331 332 331 330 329 330 331 331 331 330 330 331 332 331 331 330 330 330 329 328 327 327
332 331 330 329 328 329 328 329 330 316 329 330 329 327 326 327 328 329 330 331 332 332 333 332 332 331 331 331 331 331 331 331 331 332 333 332 331 325 330 329 329 329 328
318 326 330 332 330 330 331 331 331 331 330 331 331 330 330 329 330 331 333 335 335 335 335 335 334 334 334 333 332 331 318 297 321 308 330 330 329 328 327 327 326 326 326
305 305 307 310 312 317 321 324 323 324 322 325 328 330 330 330 330 331 333 334 335 335 334 336 335 334 334 334 323 305 295 293 311 294 325 330 329 329 328 327 326 325 324
Wind_Speed
15 14 14 13 13 12 10 10 9 8 8 8 7 7 8 8 7 7 5 6 8 7 5 9 8 8 5 3 5 7 3 4 4 4 4 3 5 6 7 8 9 10 11
15 15 14 14 13 11 10 9 8 8 7 7 7 8 8 8 7 8 8 6 5 7 6 7 7 5 5 7 5 7 6 5 4 8 8 4 4 4 8 9 7 8 10
15 15 14 13 12 11 10 9 8 9 8 8 8 8 8 8 8 7 6 6 6 5 4 4 7 8 7 7 8 7 5 5 5 7 7 2 3 2 6 6 7 7 7
14 14 13 12 11 10 10 9 9 9 9 8 8 8 8 9 8 6 6 5 5 4 4 2 3 7 9 9 7 7 6 7 6 7 6 4 2 3 5 8 7 6 8
14 13 12 11 11 11 10 9 9 9 9 9 9 9 7 6 5 4 5 6 5 5 5 4 5 6 7 2 5 8 10 9 7 6 5 3 3 3 7 5 9 9 8
13 13 12 11 11 10 10 9 9 10 10 10 10 8 8 4 7 4 3 5 5 5 6 5 6 5 6 6 8 9 7 11 10 6 4 4 5 6 7 9 12 11 6
13 13 11 11 11 10 10 9 10 9 9 8 8 8 7 6 4 2 2 4 5 5 5 6 4 4 3 5 6 7 10 7 8 10 11 10 7 8 9 11 13 12 8
13 12 12 12 11 10 9 8 9 9 9 8 8 8 8 6 4 1 4 5 5 6 5 4 6 5 7 6 7 8 8 8 9 6 8 10 8 8 10 10 12 14 11
14 13 12 11 11 10 9 8 9 9 9 8 8 8 7 8 5 2 6 7 6 6 5 4 3 7 8 7 4 10 9 6 8 13 13 18 12 12 12 12 10 14 8
15 13 11 11 10 9 9 9 8 8 9 8 9 7 6 9 7 1 4 2 5 4 4 5 4 3 9 7 5 5 10 10 11 12 14 15 13 11 6 6 11 11 9
15 13 12 10 9 9 8 8 8 8 9 10 10 8 7 9 7 5 3 2 4 4 3 3 3 7 8 7 5 8 9 12 12 11 9 9 9 8 6 5 5 8 8
15 14 14 11 8 9 9 8 8 8 9 8 7 6 6 7 8 6 5 4 1 3 3 3 4 6 7 7 6 12 12 10 10 8 8 8 8 8 6 5 5 7 3
15 14 13 11 9 8 8 8 7 7 7 6 6 4 5 5 6 6 5 4 4 2 5 6 10 8 8 7 12 15 11 8 10 10 8 6 7 9 11 8 3 6 3
15 14 12 10 9 9 7 6 5 7 6 7 6 5 6 5 6 5 5 5 6 6 8 6 6 7 9 8 7 5 6 8 9 10 9 7 6 8 10 10 8 7 6
14 13 12 9 9 9 5 3 3 6 5 7 6 5 7 6 6 5 5 5 4 6 9 5 5 6 6 4 4 6 7 7 6 9 8 8 9 8 10 9 8 7 6
13 12 11 10 8 8 8 7 15 11 10 8 10 5 6 9 13 10 9 10 13 11 4 5 6 7 5 4 5 7 6 7 6 7 8 8 10 10 9 9 6 7 7
13 12 10 8 8 8 8 8 8 6 10 10 9 9 7 12 12 12 11 12 8 6 5 6 6 8 5 5 5 7 6 7 10 8 8 10 9 9 9 9 9 9 8
14 11 10 9 9 8 8 7 8 9 9 8 8 5 9 12 11 13 13 11 6 4 5 6 5 7 8 7 8 8 6 8 9 9 9 8 8 9 10 10 10 9 9
12 11 10 9 9 9 8 7 7 10 9 10 9 5 7 9 9 5 8 6 7 7 7 7 7 7 8 8 8 9 9 9 10 9 8 8 8 9 10 9 9 8 7
12 12 11 10 9 9 8 8 7 7 8 9 9 10 9 7 6 6 9 8 8 10 10 9 9 8 8 7 8 7 7 7 8 7 9 9 9 9 9 9 9 10 11
9 11 9 9 9 9 8 8 8 7 7 8 8 11 12 11 10 11 9 7 6 6 6 9 11 10 10 9 10 9 10 9 10 9 9 9 9 10 10 11 11 11 10
10 11 12 10 9 9 9 9 8 8 8 8 7 10 11 10 8 9 10 9 7 6 7 8 7 8 8 10 11 11 11 11 11 10 11 11 11 11 10 11 11 11 11
9 10 11 10 9 8 7 9 8 8 8 8 8 10 10 9 6 7 8 8 8 7 6 7 7 7 8 8 8 9 10 10 11 11 12 12 11 11 11 12 12 12 12
3 5 9 10 8 9 8 7 7 5 7 8 7 9 9 9 7 5 5 6 7 7 7 7 7 9 8 8 8 9 9 9 9 10 13 11 12 11 12 12 13 15 14
12 10 5 0 5 6 6 6 5 7 6 5 6 6 8 6 5 4 3 3 4 4 5 5 6 8 10 12 11 12 9 7 11 8 9 14 15 16 14 14 15 15 17
13 14 12 11 12 13 12 12 12 12 12 11 8 5 5 3 4 4 2 1 2 3 3 3 4 6 7 5 13 12 8 2 7 8 11 13 13 13 14 16 21 15 17
Wind_Direction
144 138 138 135 133 137 139 141 144 147 160 171 177 178 179 181 190 194 213 175 208 192 182 197 190 186 185 184 203 233 245 227 173 118 109 130 158 185 168 149 150 142 165
140 140 137 135 136 138 139 140 148 160 169 164 170 174 180 183 175 195 199 181 201 208 194 196 173 188 187 189 238 214 223 205 173 149 136 93 72 44 132 118 118 145 148
141 137 137 136 137 138 140 144 160 156 156 162 169 175 179 176 180 196 200 191 214 209 190 187 182 198 187 186 215 210 194 163 152 159 118 102 73 68 95 97 103 106 123
141 138 137 141 141 143 143 152 156 158 157 168 172 166 167 175 177 186 192 203 187 170 135 218 220 211 185 220 197 182 146 142 116 117 134 117 94 97 106 117 97 96 112
141 138 142 142 143 144 149 152 154 157 160 162 159 160 159 181 175 184 188 167 156 157 128 92 55 32 31 257 198 160 159 149 138 128 131 122 126 131 135 123 110 105 90
146 143 148 147 144 145 148 155 162 163 166 167 171 160 169 121 68 49 320 148 166 131 146 130 97 101 75 19 2 46 178 145 153 143 134 144 144 126 132 133 128 126 104
153 146 148 151 148 150 157 165 168 167 165 168 153 148 128 108 78 112 322 150 148 144 155 147 140 110 117 110 92 88 65 111 143 167 167 156 148 145 135 134 137 132 115
151 148 148 158 150 154 162 168 156 168 167 151 143 129 137 121 105 149 264 152 130 130 150 171 163 173 119 141 145 136 123 142 151 176 142 136 131 134 129 129 128 105 103
153 147 148 150 148 156 163 159 160 158 156 149 132 137 146 137 129 250 285 141 136 135 137 135 192 168 146 165 185 139 123 110 68 57 95 104 101 99 120 119 127 130 128
156 152 147 151 148 157 144 162 159 155 153 138 138 149 152 142 132 206 290 90 121 121 125 111 49 133 170 183 162 137 144 143 134 106 107 105 116 110 71 131 146 139 133
157 150 147 146 153 140 147 150 156 154 151 151 152 156 170 138 120 113 67 161 155 162 153 142 123 127 147 165 178 158 158 148 127 123 119 125 128 134 111 119 129 135 145
157 152 146 147 158 147 153 156 156 151 154 153 151 150 131 112 82 99 82 64 125 178 168 147 110 140 139 153 170 134 133 136 132 125 126 132 134 135 141 120 121 125 76
159 156 148 157 157 150 156 152 161 156 151 145 143 158 144 141 119 90 95 110 53 224 136 96 106 113 108 93 128 133 134 138 137 138 138 139 149 153 147 129 120 136 102
163 156 152 167 162 158 167 166 158 147 167 149 158 182 150 151 145 157 145 123 130 107 111 109 112 88 79 101 115 129 122 138 148 148 141 137 144 151 157 157 166 178 203
166 161 165 161 185 160 139 77 155 104 157 161 185 166 161 174 162 141 149 155 133 112 119 119 126 113 117 133 118 108 117 125 136 146 142 148 154 171 166 168 180 180 200
171 172 177 156 173 166 144 136 56 48 53 33 58 76 108 109 123 124 122 113 125 149 118 124 130 131 133 125 121 128 132 134 136 149 151 158 165 173 160 170 188 190 210
182 172 167 184 178 155 161 154 150 83 63 48 40 57 77 130 127 128 124 123 141 153 132 140 146 142 145 142 144 138 146 147 157 168 163 168 168 161 167 182 200 201 200
185 165 173 195 176 163 164 160 157 162 171 155 60 50 116 130 133 137 140 149 148 146 139 145 157 162 152 162 155 147 157 159 167 167 172 171 173 180 191 197 199 200 206
182 173 193 189 177 162 164 164 167 160 170 147 134 105 85 83 93 130 189 173 157 153 154 156 172 191 161 174 173 158 170 171 174 177 180 177 187 195 199 206 204 211 214
188 171 200 181 163 178 169 168 172 165 157 149 169 154 147 154 162 172 203 215 170 166 166 170 173 188 183 184 186 170 182 174 172 185 189 194 198 210 206 205 214 205 212
189 162 206 188 173 184 175 178 169 176 177 166 169 146 167 184 171 176 194 214 185 178 171 168 166 181 189 190 187 189 180 188 197 202 206 205 200 202 213 215 218 227 240
194 166 188 202 180 189 182 187 179 179 177 175 166 135 174 233 172 172 182 193 210 197 178 186 184 179 186 186 193 200 207 203 203 206 214 217 210 217 224 225 232 232 232
195 183 182 203 185 175 181 184 182 186 180 173 171 140 183 218 205 179 178 184 192 201 203 195 207 195 193 196 199 206 208 210 209 210 211 217 224 225 226 230 234 236 238
261 187 190 197 191 177 186 196 189 183 191 179 172 149 180 202 223 203 197 184 186 193 200 206 215 223 207 213 209 217 225 225 218 213 221 227 229 224 238 237 235 240 246
45 31 19 208 148 209 149 177 171 154 177 173 158 165 161 178 195 202 197 214 208 210 203 215 223 221 230 243 240 231 231 200 244 275 234 228 239 240 240 231 237 247 249
61 53 42 40 37 34 32 42 42 42 42 36 43 53 62 99 69 65 86 98 252 231 252 242 240 246 262 291 357 348 11 170 232 234 256 262 258 244 244 250 253 255 253